Location: Newark
(48.1500°N, 13.1167°E)
Time: 08:37:24
(UTC+00:00)

KAITUO 1B - Pass Details

Date: 05 December 2021
Orbit: 486 x 507 km, 97.4° (Epoch: 18 January)

Event Time Altitude Azimuth Distance (km) Brightness Sun altitude
Rises 16:41:04 0° 166° (SSE) 2,597 ? -13.8°
Reaches altitude 10° 16:43:08 10° 167° (SSE) 1,720 ? -14.1°
Maximum altitude 16:46:51 87° 251° (WSW) 517 ? -14.7°
Drops below altitude 10° 16:50:37 10° 347° (NNW) 1,743 ? -15.3°
Sets 16:52:43 0° 347° (NNW) 2,635 ? -15.6°
